When you browse on this site, cookies collect data to enhance your experience and personalize the content and advertising you see.
Visit our Privacy Policy to learn more. By continuing to use the site, you agree to this use of cookies and data.
  • In Spain
  • List of Countries
  • For 7 days
  • Water Temperature
  • Weather Map
  • Weather Widgets
  • user-avatar
    Login

    Hourly Weather Strelichka

    Today, 23 August, Friday

    Time Temperature Precipitation Wind Pressure Humidity
    00:00 +16°C° 0 mm 5 mps 745 mmHg 86%
    01:00 +15°C° 0 mm 5 mps 746 mmHg 87%
    02:00 +15°C° 0 mm 5 mps 746 mmHg 85%
    03:00 +14°C° 0 mm 5 mps 746 mmHg 85%
    04:00 +14°C° 0 mm 5 mps 746 mmHg 86%
    05:00 +13°C° 0 mm 5 mps 746 mmHg 86%
    06:00 +14°C° 0 mm 5 mps 746 mmHg 83%
    07:00 +15°C° 0 mm 5 mps 747 mmHg 80%
    08:00 +16°C° 0 mm 5 mps 747 mmHg 77%
    09:00 +19°C° 0 mm 5 mps 747 mmHg 73%
    10:00 +20°C° 0 mm 5 mps 747 mmHg 69%
    11:00 +21°C° 0 mm 5 mps 747 mmHg 65%
    12:00 +21°C° 0 mm 5 mps 747 mmHg 63%
    13:00 +21°C° 0 mm 5 mps 747 mmHg 61%
    14:00 +22°C° 0 mm 5 mps 747 mmHg 59%
    15:00 +21°C° 0 mm 4 mps 747 mmHg 62%
    16:00 +21°C° 0 mm 4 mps 747 mmHg 65%
    17:00 +20°C° 0 mm 3 mps 747 mmHg 69%
    18:00 +19°C° 0 mm 3 mps 747 mmHg 72%
    19:00 +18°C° 0 mm 3 mps 747 mmHg 76%
    20:00 +16°C° 0 mm 3 mps 747 mmHg 80%
    21:00 +16°C° 0 mm 2 mps 747 mmHg 82%
    22:00 +15°C° 0 mm 2 mps 746 mmHg 85%
    23:00 +15°C° 0 mm 2 mps 746 mmHg 87%

    Tomorrow, 24 August, Saturday

    Time Temperature Precipitation Wind Pressure Humidity
    00:00 +14°C° 0 mm 2 mps 746 mmHg 89%
    01:00 +14°C° 0 mm 2 mps 747 mmHg 90%
    02:00 +13°C° 0 mm 2 mps 747 mmHg 91%
    03:00 +13°C° 0 mm 2 mps 746 mmHg 91%
    04:00 +13°C° 0 mm 2 mps 746 mmHg 91%
    05:00 +13°C° 0 mm 2 mps 746 mmHg 91%
    06:00 +15°C° 0 mm 2 mps 746 mmHg 84%
    07:00 +16°C° 0 mm 2 mps 746 mmHg 77%
    08:00 +18°C° 0 mm 2 mps 747 mmHg 70%
    09:00 +21°C° 0 mm 1 mps 746 mmHg 63%
    10:00 +22°C° 0 mm 1 mps 746 mmHg 57%
    11:00 +23°C° 0 mm 1 mps 746 mmHg 50%
    12:00 +23°C° 0 mm 1 mps 746 mmHg 48%
    13:00 +24°C° 0 mm 1 mps 746 mmHg 46%
    14:00 +24°C° 0 mm 2 mps 745 mmHg 45%
    15:00 +24°C° 0 mm 2 mps 745 mmHg 50%
    16:00 +23°C° 0 mm 2 mps 745 mmHg 55%
    17:00 +23°C° 0 mm 2 mps 744 mmHg 60%
    18:00 +20°C° 0 mm 2 mps 745 mmHg 63%
    19:00 +19°C° 0 mm 1 mps 745 mmHg 67%
    20:00 +18°C° 0 mm 1 mps 745 mmHg 70%
    21:00 +16°C° 0 mm 1 mps 745 mmHg 72%
    22:00 +16°C° 0 mm 1 mps 745 mmHg 75%
    23:00 +15°C° 0 mm 2 mps 745 mmHg 77%

    Day after tomorrow, 25 August, Sunday

    Time Temperature Precipitation Wind Pressure Humidity
    00:00 +15°C° 0 mm 2 mps 744 mmHg 81%
    01:00 +15°C° 0 mm 2 mps 744 mmHg 84%
    02:00 +14°C° 0 mm 2 mps 744 mmHg 88%
    03:00 +14°C° 0 mm 2 mps 744 mmHg 90%
    04:00 +14°C° 0 mm 2 mps 744 mmHg 91%
    05:00 +14°C° 0 mm 2 mps 744 mmHg 93%
    06:00 +15°C° 0 mm 2 mps 744 mmHg 88%
    07:00 +17°C° 0 mm 3 mps 745 mmHg 83%
    08:00 +19°C° 0 mm 3 mps 745 mmHg 78%
    09:00 +20°C° 0 mm 3 mps 745 mmHg 73%
    10:00 +21°C° 0 mm 3 mps 745 mmHg 68%
    11:00 +22°C° 0 mm 4 mps 745 mmHg 63%
    12:00 +22°C° 0 mm 4 mps 745 mmHg 60%
    13:00 +22°C° 0 mm 4 mps 745 mmHg 57%
    14:00 +23°C° 0 mm 4 mps 745 mmHg 53%
    15:00 +22°C° 0 mm 4 mps 745 mmHg 57%
    16:00 +21°C° 0 mm 3 mps 745 mmHg 61%
    17:00 +20°C° 0 mm 3 mps 745 mmHg 64%
    18:00 +19°C° 0 mm 3 mps 745 mmHg 69%
    19:00 +17°C° 0 mm 3 mps 746 mmHg 75%
    20:00 +16°C° 0 mm 2 mps 746 mmHg 80%
    21:00 +15°C° 0 mm 2 mps 746 mmHg 81%
    22:00 +15°C° 0 mm 2 mps 747 mmHg 82%
    23:00 +14°C° 0 mm 2 mps 747 mmHg 84%

    26 August, Monday

    Time Temperature Precipitation Wind Pressure Humidity
    00:00 +14°C° 0 mm 2 mps 747 mmHg 86%
    01:00 +13°C° 0 mm 2 mps 747 mmHg 89%
    02:00 +13°C° 0 mm 2 mps 747 mmHg 91%
    03:00 +12°C° 0 mm 2 mps 747 mmHg 91%
    04:00 +12°C° 0 mm 2 mps 748 mmHg 91%
    05:00 +12°C° 0 mm 2 mps 748 mmHg 91%
    06:00 +13°C° 0 mm 2 mps 748 mmHg 84%
    07:00 +15°C° 0 mm 2 mps 748 mmHg 77%
    08:00 +17°C° 0 mm 2 mps 748 mmHg 70%
    09:00 +18°C° 0 mm 2 mps 748 mmHg 65%
    10:00 +19°C° 0 mm 2 mps 748 mmHg 59%
    11:00 +20°C° 0 mm 2 mps 748 mmHg 54%
    12:00 +22°C° 0 mm 1 mps 748 mmHg 51%
    13:00 +23°C° 0 mm 1 mps 748 mmHg 49%
    14:00 +23°C° 0 mm 1 mps 747 mmHg 46%
    15:00 +21°C° 0 mm 0 mps 747 mmHg 49%
    16:00 +21°C° 0 mm 0 mps 747 mmHg 53%
    17:00 +20°C° 0 mm 0 mps 746 mmHg 56%
    18:00 +19°C° 0 mm 0 mps 746 mmHg 59%
    19:00 +17°C° 0 mm 0 mps 746 mmHg 62%
    20:00 +15°C° 0 mm 0 mps 746 mmHg 65%
    21:00 +16°C° 0 mm 1 mps 746 mmHg 66%
    22:00 +15°C° 0 mm 1 mps 746 mmHg 68%
    23:00 +15°C° 0 mm 1 mps 746 mmHg 69%

    27 August, Tuesday

    Time Temperature Precipitation Wind Pressure Humidity
    00:00 +14°C° 0 mm 1 mps 746 mmHg 70%
    01:00 +14°C° 0 mm 1 mps 745 mmHg 72%
    02:00 +14°C° 0 mm 2 mps 745 mmHg 73%
    03:00 +13°C° 0 mm 2 mps 745 mmHg 74%
    04:00 +13°C° 0 mm 2 mps 745 mmHg 75%
    05:00 +13°C° 0 mm 2 mps 744 mmHg 77%
    06:00 +14°C° 0 mm 2 mps 744 mmHg 74%
    07:00 +16°C° 0 mm 3 mps 744 mmHg 72%
    08:00 +17°C° 0 mm 3 mps 744 mmHg 69%
    09:00 +19°C° 0 mm 3 mps 744 mmHg 66%
    10:00 +20°C° 0 mm 4 mps 744 mmHg 63%
    11:00 +22°C° 0 mm 4 mps 744 mmHg 60%
    12:00 +22°C° 0 mm 4 mps 744 mmHg 60%
    13:00 +22°C° 0 mm 4 mps 743 mmHg 60%
    14:00 +23°C° 0 mm 5 mps 743 mmHg 60%
    15:00 +22°C° 0 mm 4 mps 743 mmHg 64%
    16:00 +22°C° 0 mm 3 mps 742 mmHg 68%
    17:00 +21°C° 0 mm 3 mps 742 mmHg 72%
    18:00 +20°C° 0 mm 3 mps 742 mmHg 77%
    19:00 +19°C° 0 mm 3 mps 742 mmHg 82%
    20:00 +17°C° 0 mm 3 mps 742 mmHg 86%
    21:00 +17°C° 0 mm 3 mps 742 mmHg 88%
    22:00 +16°C° 0 mm 3 mps 743 mmHg 90%
    23:00 +16°C° 0 mm 3 mps 743 mmHg 92%

    28 August, Wednesday

    Time Temperature Precipitation Wind Pressure Humidity
    00:00 +15°C° 0 mm 2 mps 743 mmHg 93%
    01:00 +15°C° 0 mm 2 mps 743 mmHg 93%
    02:00 +14°C° 0 mm 2 mps 742 mmHg 94%
    03:00 +14°C° 0 mm 2 mps 743 mmHg 94%
    04:00 +14°C° 0 mm 2 mps 743 mmHg 93%
    05:00 +13°C° 0 mm 2 mps 743 mmHg 93%
    06:00 +15°C° 0 mm 2 mps 743 mmHg 85%
    07:00 +16°C° 0 mm 2 mps 744 mmHg 78%
    08:00 +18°C° 0 mm 3 mps 744 mmHg 71%
    09:00 +19°C° 0 mm 3 mps 744 mmHg 66%
    10:00 +20°C° 0 mm 3 mps 744 mmHg 62%
    11:00 +21°C° 0 mm 4 mps 745 mmHg 57%
    12:00 +21°C° 0 mm 4 mps 744 mmHg 57%
    13:00 +21°C° 0 mm 4 mps 744 mmHg 57%
    14:00 +21°C° 0 mm 4 mps 744 mmHg 57%
    15:00 +20°C° 0 mm 4 mps 744 mmHg 59%
    16:00 +19°C° 0 mm 4 mps 744 mmHg 61%
    17:00 +19°C° 0 mm 3 mps 744 mmHg 63%
    18:00 +17°C° 0 mm 3 mps 744 mmHg 65%
    19:00 +14°C° 0 mm 3 mps 744 mmHg 68%
    20:00 +13°C° 0 mm 3 mps 745 mmHg 70%
    21:00 +13°C° 0 mm 2 mps 745 mmHg 70%
    22:00 +12°C° 0 mm 2 mps 745 mmHg 70%
    23:00 +12°C° 0 mm 2 mps 745 mmHg 70%
    Show more